GS-1

Last updated on Thu Oct 30 2025 00:02:52 GMT+0000 (Coordinated Universal Time)

1 56372U 23060C 25301.86431383 -.00000020 00000+0 00000+0 0 9992 2 56372 2.1270 82.5370 0003197 245.4319 89.1877 1.00302081 5213
UTC large
Height (km)
Speed (km/s)
/
Latitude / Longitude
Inclination (degrees)
Orbital Period (minutes)
Azimuth
Elevation
Range (km)
Doppler Factor

Next 0 passes for location: London (51.5072 / 0.1276)

Sorry there are no passes over London.